Regional Weather Roundup
Issued by NWS

Home | Current Version | Previous Version | Graphics & Text | Print | Product List | Glossary On
Versions: 1 2 3 4 5 6 7 8 9 10 11 12 13 14 15 16 17 18 19 20 21 22 23 24 25 26 27
000
ASUS45 KBOU 240407
RWRCO

WEATHER ROUNDUP FOR COLORADO
NATIONAL WEATHER SERVICE DENVER/BOULDER CO
1000 PM MDT SAT SEP 23 2017

NOTE: "FAIR" INDICATES FEW OR NO CLOUDS BELOW 12000 FEET WITH NO
SIGNIFICANT WEATHER AND/OR OBSTRUCTIONS TO VISIBILITY.

COZ001>005-013-030-031-240500-
...NORTHWEST COLORADO...

CITY           SKY/WX    TMP DP  RH WIND       PRES   REMARKS
CRAIG          FAIR      45  39  79 E5        29.90F
HAYDEN         FAIR      46  40  79 NW3       29.93F
MEEKER         FAIR      40  38  93 NE6       29.90F
RABBIT EARS PA CLOUDY    32  32 100 S5        30.06S FOG     WCI  27
STEAMBOAT SPGS FAIR      42  40  93 CALM      29.93S
WALDEN         FAIR      37  34  87 SE6       30.00S
$$

COZ006>008-011-240500-
...WEST CENTRAL VALLEYS...

CITY           SKY/WX    TMP DP  RH WIND       PRES   REMARKS
GRAND JUNCTION FAIR      49  45  86 N10       29.82S
MONTROSE       FAIR      48  43  82 SE7       29.86F
EAGLE          FAIR      43  40  89 SE5       29.96R
RIFLE          FAIR      46  43  89 E3        29.87F
DELTA          NOT AVBL
NUCLA          FAIR      48  37  66 E6        29.86S
$$

COZ017>023-064>068-240500-
...SOUTHWEST COLORADO...

CITY           SKY/WX    TMP DP  RH WIND       PRES   REMARKS
DURANGO        FAIR      45  43  93 E5        29.92S
CORTEZ         FAIR      54  45  71 SW10      29.85R
PAGOSA SPRINGS FAIR      42  41  97 E5        29.99S
TELLURIDE      FAIR      44  32  62 E3        30.01S
WOLF CREEK PAS FOG       32  32 100 S6        30.17S VSB 1/4 WCI  26
$$

COZ009-010-012-014-032>034-037-058>063-240500-
...CENTRAL COLORADO...

CITY           SKY/WX    TMP DP  RH WIND       PRES   REMARKS
ASPEN          FAIR      37  35  92 S6        29.94F
BUENA VISTA    MOCLDY    43  41  91 CALM      29.99R
COPPER MTN     FAIR      37  28  70 MISG      30.12S
BERTHOUD PASS  HAZE      28  19  69 SE20      30.13F VSB 1/4 WCI  15
COTTONWOOD PAS FAIR      45  36  70 CALM      30.05S
GUNNISON       FAIR      41  37  86 N3        29.97S
KREMMLING      FAIR      41  37  87 CALM      29.98S
LEADVILLE      FAIR      31  30  96 E3        30.02S
MONARCH PASS   MOCLDY    32  30  93 SW23      30.23S FOG     WCI  19
SALIDA         FAIR      49  44  84 CALM      30.04R
SUNLIGHT       FAIR      32  30  93 SE3       30.09S
WILKERSON PASS CLOUDY    36  34  93 SW8       30.14S FOG
$$

COZ069>075-240500-
...SAN LUIS VALLEY/SANGRE DE CRISTO MOUNTAINS...

CITY           SKY/WX    TMP DP  RH WIND       PRES   REMARKS
ALAMOSA        FAIR      46  45  96 CALM      29.96F
DEL NORTE      FAIR      41  38  87 W9        29.99S
LA VETA PASS   DRIZZLE   39  37  93 S20G33    30.16F
SAGUACHE       FAIR      45  41  87 NW3       29.99F
$$

COZ035-036-038>040-240500-
...NORTHERN COLORADO FRONT RANGE...

CITY           SKY/WX    TMP DP  RH WIND       PRES   REMARKS
DENVER INTL AP LGT RAIN  45  42  89 NE9       30.01R
DMNS CITY PARK   N/A     45  44  98 N6G14     29.99F
AURORA         NOT AVBL
FRONT RANGE AP LGT RAIN  45  45 100 E5        30.02R
ERIE MUNI ARPT LGT RAIN  46  44  91 CALM      30.07R
BOULDER MUN AP DRIZZLE   45  45 100 SE3       30.01R
CENTENNIAL     LGT RAIN  44  43  96 N7        30.00F
BROOMFIELD     LGT RAIN  45  45 100 N3        30.02R
FORT COLLINS   CLOUDY    46  44  93 SE6       30.01R
LONGMONT       CLOUDY    48  46  90 SE3       30.03R
$$

COZ041-046-047-076>085-087-088-240500-
...PIKES PEAK/PALMER DIVIDE AND SOUTHERN FOOTHILLS...

CITY           SKY/WX    TMP DP  RH WIND       PRES   REMARKS
COLO. SPRINGS  CLOUDY    46  43  89 N14G24    29.97F
A. F. ACADEMY  CLOUDY    44  42  94 N15       29.99F
SCHRIEVER AFB  MOCLDY    45  41  87 MISG      29.93F
CHEYENNE MTN   CLOUDY    43  41  93 NW24G30   29.92F
ELLICOTT       LGT RAIN N/A N/A N/A NE20G26   29.92F
FALCON         DRIZZLE   42  40  94 N18G28    29.98F
FORT CARSON    FAIR      47  43  87 N22       29.92F
LIMON            N/A    N/A N/A N/A MISG      29.96S
MONUMENT HILL  DRIZZLE   39  37  93 N9        30.04F
CANON CITY     CLOUDY    54  50  87 E8        29.87S
WALSENBURG     CLOUDY    55  54  94 NE12      29.93R
TRINIDAD       RAIN      54  32  43 E6        29.90S
$$

COZ042>045-048>051-090-091-240500-
...NORTHEAST COLORADO...

CITY           SKY/WX    TMP DP  RH WIND       PRES   REMARKS
GREELEY ARPT   LGT RAIN  46  44  93 W6        30.01R
AKRON          LGT RAIN  44  43  96 N18       29.97F
BURLINGTON     CLOUDY    57  57 100 E6        29.89S FOG
WRAY           RAIN     N/A N/A N/A NE9       29.91R
YUMA           RAIN      45  45 100 NW16G25   29.95R
STERLING       RAIN      46  45  93 N8        29.97
HOLYOKE        RAIN      54  52  94 N16       29.94R
FORT MORGAN    LGT RAIN  45  43  93 NE15      29.96F
$$

COZ086-089-092>099-240500-
...SOUTHEAST COLORADO...

CITY           SKY/WX    TMP DP  RH WIND       PRES   REMARKS
PUEBLO         MOCLDY    51  46  83 N26G37    29.86R
LA JUNTA       HVY RAIN  60  57  89 W13G23    29.87R FOG
LAMAR          FAIR      62  59  90 E5        29.84R
SPRINGFIELD      N/A     60  60 100 SE10      29.87R
$$




USA.gov is the U.S. government's official web portal to all federal, state and local government web resources and services.